Location: Cabrera Baja
(40.4089°N, 4.3354°W)
Time: 19:18:48
(UTC+00:00)

Cosmos 1867 - Pass Details

Date: 14 July 2020
Orbit: 778 x 798 km, 65.0° (Epoch: 12 August)

Event Time Altitude Azimuth Distance (km) Brightness Sun altitude
Exits shadow 03:47:58 13° 202° (SSW) 2,145 5.3 -11.8°
Maximum altitude 03:52:49 74° 119° (ESE) 826 3.7 -11.1°
Drops below altitude 10° 03:58:15 10° 35° (NE) 2,370 7.5 -10.4°
Sets 04:00:42 0° 34° (NE) 3,305 8.5 -10.0°
